| time (UTC) | temp F | wind direction | speed MPH | gust MPH | rain 1hr in | rain 24hr in | rain mn in | humidity % | barometer mb |
| 20260905143035 | 81 | 264 | 2.0 | 7.0 | 0.00 | 0.00 | 0.00 | 79 | 1018.6 |
| 20260905141534 | 80 | 115 | 3.0 | 7.0 | 0.00 | 0.00 | 0.00 | 81 | 1018.7 |
| 20260905140035 | 79 | 205 | 0.0 | 5.0 | 0.00 | 0.00 | 0.00 | 82 | 1018.7 |
| 20260905134543 | 79 | 145 | 4.0 | 7.0 | 0.00 | 0.00 | 0.00 | 83 | 1018.8 |
| 20260905133031 | 80 | 134 | 5.0 | 10.0 | 0.00 | 0.00 | 0.00 | 80 | 1018.8 |
| 20260905131535 | 80 | 144 | 2.0 | 10.0 | 0.00 | 0.00 | 0.00 | 80 | 1018.9 |
| 20260905130029 | 80 | 221 | 4.0 | 9.0 | 0.00 | 0.00 | 0.00 | 79 | 1018.8 |
| 20260905124529 | 79 | 93 | 0.0 | 5.0 | 0.00 | 0.00 | 0.00 | 80 | 1018.8 |
| 20260905123028 | 81 | 195 | 4.0 | 7.0 | 0.00 | 0.00 | 0.00 | 78 | 1018.8 |
| 20260905121527 | 82 | 217 | 1.0 | 8.0 | 0.00 | 0.00 | 0.00 | 77 | 1018.9 |
| 20260905120026 | 80 | 155 | 5.0 | 11.0 | 0.00 | 0.00 | 0.00 | 78 | 1019.0 |
| 20260905114524 | 80 | 108 | 5.0 | 10.0 | 0.00 | 0.00 | 0.00 | 79 | 1018.8 |
| 20260905113023 | 79 | 127 | 3.0 | 9.0 | 0.00 | 0.00 | 0.00 | 79 | 1018.8 |
| 20260905111527 | 79 | 138 | 1.0 | 7.0 | 0.00 | 0.00 | 0.00 | 81 | 1018.9 |
| 20260905110022 | 78 | 127 | 5.0 | 9.0 | 0.00 | 0.00 | 0.00 | 81 | 1018.8 |
| 20260905104520 | 79 | 108 | 1.0 | 6.0 | 0.00 | 0.00 | 0.00 | 81 | 1018.8 |
| 20260905103027 | 79 | 263 | 2.0 | 9.0 | 0.00 | 0.00 | 0.00 | 82 | 1018.8 |
| 20260905101520 | 78 | 117 | 3.0 | 6.0 | 0.00 | 0.00 | 0.00 | 83 | 1018.9 |
| 20260905100021 | 78 | 230 | 2.0 | 8.0 | 0.00 | 0.00 | 0.00 | 84 | 1018.8 |
| 20260905094518 | 78 | 245 | 2.0 | 5.0 | 0.00 | 0.00 | 0.00 | 82 | 1018.7 |
| 20260905093018 | 80 | 239 | 1.0 | 5.0 | 0.00 | 0.00 | 0.00 | 79 | 1018.7 |
| 20260905091517 | 80 | 267 | 2.0 | 5.0 | 0.00 | 0.00 | 0.00 | 78 | 1018.6 |
| 20260905090014 | 79 | 120 | 1.0 | 3.0 | 0.00 | 0.00 | 0.00 | 80 | 1018.6 |
| 20260905084514 | 79 | 96 | 1.0 | 5.0 | 0.00 | 0.00 | 0.00 | 79 | 1018.5 |
| 20260905083013 | 78 | 95 | 2.0 | 6.0 | 0.00 | 0.00 | 0.00 | 79 | 1018.5 |
| 20260905081510 | 79 | 225 | 1.0 | 4.0 | 0.00 | 0.00 | 0.00 | 79 | 1018.3 |
| 20260905080011 | 77 | 208 | 1.0 | 4.0 | 0.00 | 0.00 | 0.00 | 83 | 1018.4 |
| 20260905074505 | 76 | 184 | 0.0 | 1.0 | 0.00 | 0.00 | 0.00 | 84 | 1018.4 |
| 20260905073004 | 76 | 126 | 0.0 | 1.0 | 0.00 | 0.00 | 0.00 | 84 | 1018.5 |
| 20260905071504 | 74 | 93 | 0.0 | 1.0 | 0.00 | 0.00 | 0.00 | 83 | 1018.3 |
| 20260905070004 | 74 | 91 | 0.0 | 2.0 | 0.00 | 0.00 | 0.00 | 82 | 1018.2 |
| 20260905064502 | 75 | 103 | 0.0 | 0.0 | 0.00 | 0.00 | 0.00 | 81 | 1018.1 |
| 20260905063059 | 76 | 16 | 0.0 | 1.0 | 0.00 | 0.00 | 0.00 | 83 | 1018.1 |
| 20260905061607 | 73 | 15 | 0.0 | 0.0 | 0.00 | 0.00 | 0.00 | 87 | 1018.0 |
| 20260905060058 | 72 | 347 | 1.0 | 4.0 | 0.00 | 0.00 | 0.00 | 86 | 1017.9 |
| 20260905054554 | 72 | 343 | 1.0 | 5.0 | 0.00 | 0.00 | 0.00 | 87 | 1017.9 |
| 20260905053048 | 71 | 349 | 1.0 | 5.0 | 0.00 | 0.00 | 0.00 | 90 | 1017.8 |
| 20260905051548 | 70 | 319 | 1.0 | 5.0 | 0.00 | 0.00 | 0.00 | 89 | 1017.7 |
| 20260905050045 | 70 | 319 | 2.0 | 5.0 | 0.00 | 0.00 | 0.00 | 89 | 1017.6 |
| 20260905044546 | 69 | 320 | 2.0 | 6.0 | 0.00 | 0.00 | 0.00 | 87 | 1017.6 |
| 20260905043052 | 69 | 344 | 2.0 | 6.0 | 0.00 | 0.00 | 0.00 | 88 | 1017.7 |
| 20260905041542 | 70 | 319 | 2.0 | 6.0 | 0.00 | 0.00 | 0.00 | 88 | 1017.5 |
| 20260905040045 | 70 | 356 | 2.0 | 4.0 | 0.00 | 0.00 | 0.00 | 88 | 1017.7 |
| 20260905034540 | 70 | 3 | 1.0 | 6.0 | 0.00 | 0.00 | 0.00 | 88 | 1017.7 |
| 20260905033040 | 70 | 7 | 3.0 | 6.0 | 0.00 | 0.00 | 0.00 | 88 | 1017.7 |
| 20260905031547 | 70 | 354 | 1.0 | 3.0 | 0.00 | 0.00 | 0.00 | 89 | 1017.8 |
| 20260905030037 | 70 | 351 | 0.0 | 5.0 | 0.00 | 0.00 | 0.00 | 87 | 1017.8 |
| 20260905024537 | 70 | 333 | 0.0 | 2.0 | 0.00 | 0.00 | 0.00 | 87 | 1017.9 |
| 20260905023036 | 70 | 328 | 0.0 | 2.0 | 0.00 | 0.00 | 0.00 | 86 | 1018.0 |
| 20260905021537 | 71 | 342 | 0.0 | 1.0 | 0.00 | 0.00 | 0.00 | 86 | 1017.9 |
| 20260905020045 | 70 | 20 | 0.0 | 3.0 | 0.00 | 0.00 | 0.00 | 86 | 1017.7 |
| 20260905014533 | 70 | 39 | 0.0 | 2.0 | 0.00 | 0.00 | 0.00 | 85 | 1017.7 |
| 20260905013043 | 70 | 21 | 0.0 | 2.0 | 0.00 | 0.00 | 0.00 | 84 | 1017.9 |
| 20260905011548 | 71 | 354 | 0.0 | 5.0 | 0.00 | 0.00 | 0.00 | 83 | 1017.9 |
| 20260905010028 | 71 | 25 | 1.0 | 5.0 | 0.00 | 0.00 | 0.00 | 83 | 1018.1 |
| 20260905004531 | 71 | 1 | 1.0 | 3.0 | 0.00 | 0.00 | 0.00 | 83 | 1018.1 |
| 20260905003030 | 71 | 357 | 1.0 | 3.0 | 0.00 | 0.00 | 0.00 | 84 | 1018.2 |
| 20260905001523 | 71 | 1 | 0.0 | 3.0 | 0.00 | 0.00 | 0.00 | 84 | 1018.3 |
| 20260905000021 | 71 | 351 | 1.0 | 3.0 | 0.00 | 0.00 | 0.00 | 84 | 1018.4 |
| 20260904234520 | 71 | 327 | 2.0 | 4.0 | 0.00 | 0.00 | 0.00 | 84 | 1018.6 |
| 20260904233019 | 71 | 340 | 0.0 | 3.0 | 0.00 | 0.00 | 0.00 | 85 | 1018.7 |
| 20260904231518 | 71 | 360 | 1.0 | 3.0 | 0.00 | 0.00 | 0.00 | 87 | 1018.7 |
| 20260904230017 | 71 | 336 | 0.0 | 3.0 | 0.00 | 0.00 | 0.00 | 86 | 1018.6 |
| 20260904224514 | 71 | 20 | 1.0 | 3.0 | 0.00 | 0.00 | 0.00 | 84 | 1018.7 |
| 20260904223014 | 71 | 327 | 0.0 | 2.0 | 0.00 | 0.00 | 0.00 | 85 | 1018.8 |
| 20260904221512 | 72 | 338 | 0.0 | 1.0 | 0.00 | 0.00 | 0.00 | 85 | 1018.9 |
| 20260904220012 | 72 | 345 | 0.0 | 4.0 | 0.00 | 0.00 | 0.00 | 84 | 1018.8 |
| 20260904214509 | 72 | 322 | 0.0 | 3.0 | 0.00 | 0.00 | 0.00 | 84 | 1018.8 |
| 20260904213013 | 72 | 323 | 0.0 | 3.0 | 0.00 | 0.00 | 0.00 | 86 | 1018.9 |
| 20260904211509 | 72 | 346 | 0.0 | 1.0 | 0.00 | 0.00 | 0.00 | 86 | 1018.9 |
| 20260904210011 | 72 | 25 | 0.0 | 0.0 | 0.00 | 0.00 | 0.00 | 86 | 1019.0 |
| 20260904204507 | 72 | 27 | 0.0 | 0.0 | 0.00 | 0.00 | 0.00 | 87 | 1019.1 |
| 20260904203013 | 72 | 27 | 0.0 | 0.0 | 0.00 | 0.00 | 0.00 | 87 | 1019.2 |
| 20260904201506 | 72 | 20 | 0.0 | 0.0 | 0.00 | 0.00 | 0.00 | 87 | 1019.3 |
| 20260904200005 | 72 | 20 | 0.0 | 0.0 | 0.00 | 0.00 | 0.00 | 87 | 1019.3 |
| 20260904194506 | 73 | 20 | 0.0 | 0.0 | 0.00 | 0.00 | 0.00 | 87 | 1019.2 |
| 20260904193004 | 73 | 20 | 0.0 | 0.0 | 0.00 | 0.00 | 0.00 | 86 | 1019.1 |
| 20260904191504 | 74 | 23 | 0.0 | 1.0 | 0.00 | 0.00 | 0.00 | 87 | 1019.0 |
| 20260904190005 | 74 | 19 | 0.0 | 2.0 | 0.00 | 0.00 | 0.00 | 86 | 1018.9 |
| 20260904184502 | 74 | 19 | 0.0 | 4.0 | 0.00 | 0.00 | 0.00 | 85 | 1018.7 |
| 20260904183000 | 75 | 347 | 1.0 | 3.0 | 0.00 | 0.00 | 0.00 | 84 | 1018.7 |
| 20260904181503 | 75 | 214 | 0.0 | 1.0 | 0.00 | 0.00 | 0.00 | 84 | 1018.5 |
| 20260904180100 | 76 | 214 | 0.0 | 2.0 | 0.00 | 0.00 | 0.00 | 83 | 1018.6 |
| 20260904174602 | 77 | 227 | 0.0 | 2.0 | 0.00 | 0.00 | 0.00 | 80 | 1018.5 |
| 20260904173057 | 79 | 150 | 0.0 | 1.0 | 0.00 | 0.00 | 0.00 | 77 | 1018.4 |
| 20260904171613 | 80 | 143 | 0.0 | 4.0 | 0.00 | 0.00 | 0.00 | 76 | 1018.4 |
| 20260904170056 | 82 | 98 | 0.0 | 4.0 | 0.00 | 0.00 | 0.00 | 73 | 1018.5 |
| 20260904164554 | 82 | 119 | 0.0 | 3.0 | 0.00 | 0.00 | 0.00 | 71 | 1018.7 |
| 20260904163053 | 82 | 233 | 0.0 | 5.0 | 0.00 | 0.00 | 0.00 | 71 | 1018.6 |
| 20260904161553 | 83 | 205 | 1.0 | 6.0 | 0.00 | 0.00 | 0.00 | 71 | 1018.7 |
| 20260904160051 | 82 | 230 | 2.0 | 6.0 | 0.00 | 0.00 | 0.00 | 73 | 1018.8 |
| 20260904154554 | 82 | 197 | 2.0 | 5.0 | 0.00 | 0.00 | 0.00 | 74 | 1018.9 |
| 20260904153051 | 82 | 160 | 1.0 | 7.0 | 0.00 | 0.00 | 0.00 | 76 | 1019.1 |
| 20260904151548 | 83 | 203 | 3.0 | 7.0 | 0.00 | 0.00 | 0.00 | 76 | 1019.1 |
| 20260904150048 | 83 | 87 | 4.0 | 9.0 | 0.00 | 0.00 | 0.00 | 74 | 1019.3 |
| 20260904144549 | 84 | 233 | 2.0 | 7.0 | 0.00 | 0.00 | 0.00 | 75 | 1019.2 |